User: anonymous   Login
Location: Unspecified
(0.0000°N, 0.0000°E)
Time: 20:00:51
(UTC+00:00)
Language:

ISS - Orbit

View from above orbital plane
View from above orbital plane
View from above satellite
View from above satellite

Ground track
Ground track

The orbit data is extracted from the following two-line orbital elements,

1 25544U 98067A   19288.75937223  .00000164  00000-0  10864-4 0  9990
2 25544  51.6427 123.3875 0007154 151.5264 273.9790 15.50197542193961
Epoch (UTC): 15 October 2019 18:13:29
Eccentricity: 0.0007154
inclination: 51.6427°
perigee height: 411 km
apogee height: 421 km
right ascension of ascending node: 123.3875°
argument of perigee: 151.5264°
revolutions per day: 15.50197542
mean anomaly at epoch: 273.9790°
orbit number at epoch: 19396

The dashed part of the orbit path shows where the satellite is in the earth's shadow,  

DLR